Current Weather Conditions: station 64046

sailwx.info

Wind from 160 at 20 knots

Wave height 1.6 meters (5 feet), 6 second period

Air temperature 13.3° C
Dewpoint 11.7° C

Last reported at 2019-Aug-21 19:00 UTC.
Time now 2019-Aug-21 20:38 UTC

Location: N 60°30' W 004°12'.
View on Google Maps.

See reports from other nearby stations

  
Tides and Currents Weather Stations Pressure Air Temp Water Temp Dewpoint Dewpoint Depression Visibility Wind Speed Wind Dir Waves Ship Positions
date/time (UTC)wind fromknots sea level pressurealtimeterstation pressurevisibilityair tempwater tempwave heightnotes
2019-Aug-21 19:00 160 20 13.3 1.6
2019-Aug-21 18:00 170 18 13.1 1.6
2019-Aug-21 17:00 190 13 13.6 1.6
2019-Aug-21 16:00 130 15 13.5 1.6
2019-Aug-21 15:00 140 13 13.4 1.6
2019-Aug-21 14:00 140 13 13.3 1.8
2019-Aug-21 13:00 150 13 13.3 1.9
2019-Aug-21 12:00 160 13 13.3 1.9
2019-Aug-21 11:00 170 12 12.9 1.5
2019-Aug-21 10:00 180 13 12.8 1.8
2019-Aug-21 09:00 170 12 13.2 1.8
2019-Aug-21 08:00 160 13 13.0 2.1
2019-Aug-21 07:00 170 14 12.9 1.8
2019-Aug-21 06:00 160 14 12.8 2.0
2019-Aug-21 05:00 150 14 12.4 1.8
2019-Aug-21 04:00 170 14 12.8 1.8
2019-Aug-21 03:00 180 15 12.9 2.0
2019-Aug-21 02:00 170 13 12.9 2.1
2019-Aug-21 01:00 170 12 12.7 2.1
2019-Aug-21 00:00 160 7 12.3 2.1
2019-Aug-20 23:00 130 5 11.7 2.3
2019-Aug-20 22:00 170 5 11.5 2.0
2019-Aug-20 21:00 210 5 11.4 2.2
2019-Aug-20 20:00 260 5 11.3 2.4
2019-Aug-20 19:00 270 7 11.2 2.3
2019-Aug-20 18:00 280 8 11.0 2.1
2019-Aug-20 17:00 290 11 10.9 2.1
2019-Aug-20 16:00 290 13 10.9 2.5
2019-Aug-20 15:00 290 13 11.0 2.4
2019-Aug-20 14:00 300 13 10.9 2.6
2019-Aug-20 13:00 290 15 10.9 2.7
2019-Aug-20 12:00 290 17 10.9 2.5
2019-Aug-20 11:00 300 15 10.7 2.7
2019-Aug-20 10:00 310 15 10.9 2.8
2019-Aug-20 09:00 300 18 10.8 2.8
2019-Aug-20 08:00 300 18 10.8 2.8
2019-Aug-20 07:00 300 18 gusting 25 10.8 2.6
2019-Aug-20 06:00 300 20 gusting 26 10.7 2.8
2019-Aug-20 04:00 300 19 gusting 25 10.8 2.9
2019-Aug-20 03:00 300 20 gusting 26 10.7 2.6
2019-Aug-20 02:00 300 18 gusting 25 10.6 2.6
2019-Aug-20 01:00 300 20 gusting 26 11.2 2.4
2019-Aug-20 00:00 310 20 11.3 2.5
2019-Aug-19 23:00 310 20 gusting 25 11.5 2.6
2019-Aug-19 22:00 310 18 11.7 2.4
2019-Aug-19 21:00 310 18 11.9 2.0
2019-Aug-19 20:00 310 18 12.0 2.1